Location: Unspecified
(29.9680°N, 0.0000°E)
Time: 05:55:34
(UTC+00:00)

Explorer 7 - Pass Details

Date: 29 June 2019
Orbit: 485 x 680 km, 50.3° (Epoch: 15 July)

Event Time Altitude Azimuth Distance (km) Brightness Sun altitude
Rises 10:58:39 0° 330° (NNW) 2,880 10.4 74.0°
Reaches altitude 10° 11:02:11 10° 359° (N) 2,018 9.8 74.8°
Maximum altitude 11:04:21 13° 27° (NNE) 1,848 9.7 75.2°
Drops below altitude 10° 11:06:32 10° 54° (NE) 2,062 10.0 75.6°
Sets 11:10:13 0° 82° (E) 3,002 10.7 76.3°
